• în Republica Moldova
  • Lista ţărilor
  • Pe 7 zile
  • Temperatura apei
  • Hartă satelitară
  • Meteo pe hartă
  • Widget-uri
  • user-avatar
    Intrare

    Meteo pe oră la Luanda

    Astăzi, 24 Aprilie, Luni

    Timp Temperatura Precipitaţii Vânt Presiune Umiditate
    00:00 +24°C° 0 mm 2 m/s 754 mmHg 93%
    01:00 +24°C° 0 mm 2 m/s 754 mmHg 95%
    02:00 +24°C° 0 mm 2 m/s 754 mmHg 95%
    03:00 +23°C° 0 mm 2 m/s 754 mmHg 95%
    04:00 +23°C° 0 mm 1 m/s 754 mmHg 96%
    05:00 +24°C° 0 mm 1 m/s 754 mmHg 93%
    06:00 +24°C° 0 mm 2 m/s 754 mmHg 91%
    07:00 +25°C° 0 mm 2 m/s 755 mmHg 89%
    08:00 +28°C° 0 mm 1 m/s 755 mmHg 76%
    09:00 +30°C° 0 mm 1 m/s 755 mmHg 62%
    10:00 +33°C° 0 mm 1 m/s 755 mmHg 49%
    11:00 +34°C° 0 mm 1 m/s 755 mmHg 43%
    12:00 +36°C° 0 mm 2 m/s 754 mmHg 36%
    13:00 +38°C° 0 mm 2 m/s 754 mmHg 30%
    14:00 +37°C° 0 mm 3 m/s 753 mmHg 34%
    15:00 +36°C° 0 mm 4 m/s 753 mmHg 38%
    16:00 +35°C° 0 mm 4 m/s 752 mmHg 42%
    17:00 +32°C° 0 mm 5 m/s 752 mmHg 53%
    18:00 +29°C° 0 mm 5 m/s 753 mmHg 64%
    19:00 +27°C° 0 mm 5 m/s 753 mmHg 75%
    20:00 +26°C° 0 mm 5 m/s 753 mmHg 77%
    21:00 +26°C° 0 mm 5 m/s 754 mmHg 78%
    22:00 +25°C° 0 mm 5 m/s 754 mmHg 79%
    23:00 +25°C° 0 mm 4 m/s 754 mmHg 80%

    Mâine, 25 Aprilie, Marţi

    Timp Temperatura Precipitaţii Vânt Presiune Umiditate
    00:00 +23°C° 0 mm 4 m/s 754 mmHg 82%
    01:00 +23°C° 0 mm 4 m/s 754 mmHg 83%
    02:00 +22°C° 0 mm 4 m/s 754 mmHg 84%
    03:00 +21°C° 0 mm 4 m/s 754 mmHg 85%
    04:00 +21°C° 0 mm 4 m/s 753 mmHg 86%
    05:00 +21°C° 0 mm 4 m/s 753 mmHg 84%
    06:00 +21°C° 0 mm 4 m/s 754 mmHg 81%
    07:00 +21°C° 0 mm 4 m/s 754 mmHg 78%
    08:00 +26°C° 0 mm 4 m/s 754 mmHg 63%
    09:00 +29°C° 0 mm 4 m/s 754 mmHg 47%
    10:00 +33°C° 0 mm 4 m/s 754 mmHg 32%
    11:00 +35°C° 0 mm 4 m/s 754 mmHg 28%
    12:00 +37°C° 0 mm 4 m/s 753 mmHg 23%
    13:00 +40°C° 0 mm 4 m/s 753 mmHg 19%
    14:00 +38°C° 0 mm 4 m/s 752 mmHg 24%
    15:00 +36°C° 0 mm 5 m/s 752 mmHg 30%
    16:00 +35°C° 0 mm 5 m/s 751 mmHg 36%
    17:00 +32°C° 0 mm 5 m/s 751 mmHg 49%
    18:00 +29°C° 0 mm 4 m/s 752 mmHg 63%
    19:00 +26°C° 0 mm 4 m/s 752 mmHg 76%
    20:00 +25°C° 0 mm 3 m/s 753 mmHg 82%
    21:00 +24°C° 0 mm 3 m/s 753 mmHg 87%
    22:00 +23°C° 0 mm 2 m/s 754 mmHg 93%
    23:00 +21°C° 0 mm 2 m/s 754 mmHg 93%

    Poimâine, 26 Aprilie, Miercuri

    Timp Temperatura Precipitaţii Vânt Presiune Umiditate
    00:00 +21°C° 0 mm 2 m/s 754 mmHg 93%
    01:00 +21°C° 0 mm 2 m/s 753 mmHg 93%
    02:00 +21°C° 0 mm 2 m/s 753 mmHg 93%
    03:00 +21°C° 0 mm 2 m/s 753 mmHg 93%
    04:00 +21°C° 0 mm 3 m/s 753 mmHg 92%
    05:00 +21°C° 0 mm 2 m/s 753 mmHg 89%
    06:00 +23°C° 0 mm 2 m/s 753 mmHg 86%
    07:00 +23°C° 0 mm 2 m/s 754 mmHg 83%
    08:00 +26°C° 0 mm 2 m/s 754 mmHg 71%
    09:00 +28°C° 0 mm 2 m/s 755 mmHg 58%
    10:00 +31°C° 0 mm 2 m/s 755 mmHg 46%
    11:00 +34°C° 0 mm 2 m/s 754 mmHg 40%
    12:00 +35°C° 0 mm 2 m/s 754 mmHg 33%
    13:00 +37°C° 0 mm 2 m/s 753 mmHg 27%
    14:00 +36°C° 0 mm 3 m/s 752 mmHg 32%
    15:00 +35°C° 0 mm 4 m/s 752 mmHg 37%
    16:00 +34°C° 0 mm 4 m/s 751 mmHg 42%
    17:00 +32°C° 0 mm 4 m/s 752 mmHg 55%
    18:00 +29°C° 0 mm 4 m/s 752 mmHg 69%
    19:00 +26°C° 0 mm 4 m/s 752 mmHg 82%
    20:00 +26°C° 0 mm 3 m/s 753 mmHg 83%
    21:00 +25°C° 0 mm 3 m/s 753 mmHg 85%
    22:00 +25°C° 0 mm 3 m/s 754 mmHg 86%
    23:00 +25°C° 0 mm 2 m/s 754 mmHg 88%

    27 Aprilie, Joi

    Timp Temperatura Precipitaţii Vânt Presiune Umiditate
    00:00 +24°C° 0 mm 2 m/s 754 mmHg 89%
    01:00 +24°C° 0 mm 2 m/s 754 mmHg 91%
    02:00 +24°C° 0 mm 2 m/s 753 mmHg 92%
    03:00 +23°C° 0 mm 1 m/s 753 mmHg 93%
    04:00 +23°C° 0 mm 1 m/s 753 mmHg 94%
    05:00 +24°C° 0 mm 2 m/s 753 mmHg 91%
    06:00 +24°C° 0 mm 2 m/s 754 mmHg 87%
    07:00 +25°C° 0 mm 2 m/s 754 mmHg 84%
    08:00 +27°C° 0 mm 2 m/s 754 mmHg 72%
    09:00 +30°C° 0 mm 2 m/s 755 mmHg 59%
    10:00 +34°C° 0 mm 2 m/s 755 mmHg 47%
    11:00 +35°C° 0 mm 2 m/s 754 mmHg 42%
    12:00 +37°C° 0 mm 3 m/s 753 mmHg 38%
    13:00 +39°C° 0 mm 3 m/s 752 mmHg 34%
    14:00 +38°C° 0 mm 4 m/s 751 mmHg 37%
    15:00 +37°C° 0 mm 4 m/s 751 mmHg 40%
    16:00 +36°C° 0 mm 5 m/s 750 mmHg 43%
    17:00 +34°C° 0 mm 5 m/s 751 mmHg 53%
    18:00 +30°C° 0 mm 5 m/s 752 mmHg 62%
    19:00 +28°C° 0 mm 5 m/s 752 mmHg 72%
    20:00 +27°C° 0 mm 4 m/s 753 mmHg 75%
    21:00 +27°C° 0 mm 4 m/s 753 mmHg 79%
    22:00 +26°C° 0 mm 3 m/s 754 mmHg 83%
    23:00 +26°C° 0 mm 3 m/s 753 mmHg 85%

    28 Aprilie, Vineri

    Timp Temperatura Precipitaţii Vânt Presiune Umiditate
    00:00 +26°C° 0 mm 2 m/s 753 mmHg 87%
    01:00 +25°C° 0 mm 2 m/s 753 mmHg 89%
    02:00 +25°C° 0 mm 2 m/s 753 mmHg 89%
    03:00 +25°C° 0 mm 1 m/s 753 mmHg 90%
    04:00 +25°C° 0 mm 1 m/s 753 mmHg 90%
    05:00 +25°C° 0 mm 2 m/s 753 mmHg 87%
    06:00 +26°C° 0 mm 2 m/s 754 mmHg 84%
    07:00 +26°C° 0 mm 2 m/s 754 mmHg 80%
    08:00 +29°C° 0 mm 2 m/s 755 mmHg 70%
    09:00 +31°C° 0 mm 2 m/s 755 mmHg 60%
    10:00 +35°C° 0 mm 2 m/s 755 mmHg 50%
    11:00 +36°C° 0 mm 2 m/s 754 mmHg 45%
    12:00 +38°C° 0 mm 3 m/s 753 mmHg 40%
    13:00 +40°C° 0 mm 3 m/s 752 mmHg 36%
    14:00 +38°C° 0 mm 4 m/s 752 mmHg 41%
    15:00 +36°C° 0 mm 5 m/s 751 mmHg 47%
    16:00 +35°C° 0 mm 5 m/s 751 mmHg 52%
    17:00 +33°C° 0,1 mm 5 m/s 751 mmHg 62%
    18:00 +30°C° 0,1 mm 4 m/s 752 mmHg 72%
    19:00 +28°C° 0,1 mm 4 m/s 753 mmHg 82%
    20:00 +27°C° 0,2 mm 3 m/s 753 mmHg 85%
    21:00 +27°C° 0,2 mm 3 m/s 753 mmHg 87%
    22:00 +27°C° 0,2 mm 2 m/s 754 mmHg 90%
    23:00 +27°C° 0 mm 2 m/s 754 mmHg 90%

    29 Aprilie, Sâmbătă

    Timp Temperatura Precipitaţii Vânt Presiune Umiditate
    00:00 +27°C° 0 mm 2 m/s 754 mmHg 90%
    01:00 +26°C° 0 mm 2 m/s 753 mmHg 90%
    02:00 +26°C° 0 mm 2 m/s 753 mmHg 90%
    03:00 +26°C° 0 mm 2 m/s 753 mmHg 90%
    04:00 +26°C° 0 mm 2 m/s 753 mmHg 90%
    05:00 +26°C° 0 mm 3 m/s 753 mmHg 88%
    06:00 +26°C° 0 mm 3 m/s 754 mmHg 87%
    07:00 +26°C° 0 mm 3 m/s 754 mmHg 86%
    08:00 +29°C° 0 mm 3 m/s 754 mmHg 76%
    09:00 +31°C° 0 mm 3 m/s 754 mmHg 65%
    10:00 +35°C° 0 mm 3 m/s 754 mmHg 54%
    11:00 +37°C° 0 mm 3 m/s 753 mmHg 47%
    12:00 +39°C° 0 mm 3 m/s 753 mmHg 40%
    13:00 +42°C° 0 mm 4 m/s 752 mmHg 33%
    14:00 +41°C° 0 mm 4 m/s 751 mmHg 38%
    15:00 +39°C° 0 mm 5 m/s 751 mmHg 43%
    16:00 +37°C° 0 mm 5 m/s 750 mmHg 47%
    17:00 +35°C° 0 mm 5 m/s 751 mmHg 57%
    18:00 +33°C° 0 mm 5 m/s 751 mmHg 67%
    19:00 +29°C° 0 mm 5 m/s 752 mmHg 77%
    20:00 +29°C° 0,2 mm 4 m/s 752 mmHg 80%
    21:00 +28°C° 0,2 mm 4 m/s 753 mmHg 82%
    22:00 +28°C° 0,2 mm 4 m/s 753 mmHg 85%
    23:00 +28°C° 0 mm 4 m/s 753 mmHg 85%
    Arată mai mult